Tracking 19212 objects as of 16-Jul-2018
HD Live streaming from Space Station
objects crossing your sky now

FENGYUN 1C DEB

Track FENGYUN 1C DEB now!
10-day predictions


NORAD ID: 31773
Int'l Code: 1999-025CFY
Perigee: 725.2 km
Apogee: 827.0 km
Inclination: 99.0 °
Period: 100.2 minutes
Semi major axis: 7147 km
RCS: 0.0025 m2 (small)
Launch date: May 10, 1999
Source: People's Republic of China (PRC)
Launch site: Taiyaun Space Center, China (TSC)

Note: This is SATELLITE DEBRIS
aabbcc
Your satellite tracking list
Your tracking list is empty




NASA's NSSDC Master Catalog

Two Line Element Set (TLE):
1 31773U 99025CFY 18196.72274183 +.00000579 +00000-0 +20662-3 0  9995
2 31773 099.0021 009.3605 0071223 318.8868 040.6963 14.36827900260987
Source of the keplerian elements: AFSPC